Hourly Weather Aliganj

Today, 2 March, Tuesday

Time Temperature Precipitation Wind Pressure Humidity
00:00 +18°C° 0 mm 3 mps 746 mmHg 14%
01:00 +17°C° 0 mm 3 mps 745 mmHg 15%
02:00 +17°C° 0 mm 3 mps 745 mmHg 16%
03:00 +16°C° 0 mm 3 mps 745 mmHg 17%
04:00 +16°C° 0 mm 3 mps 745 mmHg 18%
05:00 +14°C° 0 mm 3 mps 745 mmHg 18%
06:00 +17°C° 0 mm 3 mps 745 mmHg 18%
07:00 +18°C° 0 mm 4 mps 746 mmHg 18%
08:00 +20°C° 0 mm 4 mps 746 mmHg 18%
09:00 +23°C° 0 mm 5 mps 746 mmHg 16%
10:00 +27°C° 0 mm 5 mps 746 mmHg 14%
11:00 +30°C° 0 mm 6 mps 746 mmHg 12%
12:00 +32°C° 0 mm 6 mps 746 mmHg 12%
13:00 +32°C° 0 mm 6 mps 745 mmHg 12%
14:00 +33°C° 0 mm 6 mps 744 mmHg 12%
15:00 +32°C° 0 mm 5 mps 743 mmHg 13%
16:00 +30°C° 0 mm 4 mps 743 mmHg 15%
17:00 +29°C° 0 mm 3 mps 743 mmHg 17%
18:00 +27°C° 0 mm 3 mps 743 mmHg 16%
19:00 +25°C° 0 mm 3 mps 743 mmHg 16%
20:00 +22°C° 0 mm 3 mps 744 mmHg 15%
21:00 +21°C° 0 mm 3 mps 744 mmHg 15%
22:00 +20°C° 0 mm 3 mps 744 mmHg 15%
23:00 +20°C° 0 mm 4 mps 744 mmHg 15%

Tomorrow, 3 March, Wednesday

Time Temperature Precipitation Wind Pressure Humidity
00:00 +19°C° 0 mm 4 mps 743 mmHg 16%
01:00 +18°C° 0 mm 3 mps 743 mmHg 17%
02:00 +18°C° 0 mm 3 mps 743 mmHg 18%
03:00 +17°C° 0 mm 3 mps 743 mmHg 19%
04:00 +17°C° 0 mm 3 mps 742 mmHg 19%
05:00 +16°C° 0 mm 3 mps 742 mmHg 20%
06:00 +18°C° 0 mm 3 mps 743 mmHg 19%
07:00 +20°C° 0 mm 4 mps 744 mmHg 19%
08:00 +22°C° 0 mm 4 mps 744 mmHg 18%
09:00 +26°C° 0 mm 5 mps 744 mmHg 16%
10:00 +30°C° 0 mm 5 mps 744 mmHg 13%
11:00 +34°C° 0 mm 6 mps 744 mmHg 10%
12:00 +35°C° 0 mm 6 mps 744 mmHg 10%
13:00 +36°C° 0 mm 6 mps 743 mmHg 9%
14:00 +37°C° 0 mm 5 mps 742 mmHg 8%
15:00 +36°C° 0 mm 4 mps 742 mmHg 10%
16:00 +35°C° 0 mm 3 mps 741 mmHg 11%
17:00 +34°C° 0 mm 3 mps 741 mmHg 13%
18:00 +31°C° 0 mm 3 mps 741 mmHg 13%
19:00 +29°C° 0 mm 3 mps 742 mmHg 13%
20:00 +27°C° 0 mm 3 mps 742 mmHg 13%
21:00 +26°C° 0 mm 3 mps 742 mmHg 13%
22:00 +25°C° 0 mm 3 mps 742 mmHg 13%
23:00 +25°C° 0 mm 3 mps 742 mmHg 13%

Day after tomorrow, 4 March, Thursday

Time Temperature Precipitation Wind Pressure Humidity
00:00 +24°C° 0 mm 3 mps 742 mmHg 14%
01:00 +21°C° 0 mm 3 mps 742 mmHg 15%
02:00 +20°C° 0 mm 2 mps 742 mmHg 17%
03:00 +20°C° 0 mm 2 mps 742 mmHg 17%
04:00 +19°C° 0 mm 2 mps 742 mmHg 17%
05:00 +18°C° 0 mm 2 mps 742 mmHg 18%
06:00 +20°C° 0 mm 2 mps 743 mmHg 17%
07:00 +23°C° 0 mm 1 mps 743 mmHg 16%
08:00 +25°C° 0 mm 1 mps 744 mmHg 16%
09:00 +28°C° 0 mm 1 mps 744 mmHg 14%
10:00 +31°C° 0 mm 2 mps 744 mmHg 12%
11:00 +35°C° 0 mm 2 mps 744 mmHg 10%
12:00 +36°C° 0 mm 3 mps 743 mmHg 9%
13:00 +37°C° 0 mm 3 mps 742 mmHg 8%
14:00 +38°C° 0 mm 4 mps 742 mmHg 7%
15:00 +37°C° 0 mm 3 mps 741 mmHg 9%
16:00 +35°C° 0 mm 2 mps 741 mmHg 11%
17:00 +33°C° 0 mm 1 mps 740 mmHg 12%
18:00 +31°C° 0 mm 1 mps 741 mmHg 13%
19:00 +28°C° 0 mm 1 mps 741 mmHg 14%
20:00 +26°C° 0 mm 1 mps 741 mmHg 15%
21:00 +25°C° 0 mm 1 mps 741 mmHg 15%
22:00 +24°C° 0 mm 1 mps 741 mmHg 16%
23:00 +24°C° 0 mm 1 mps 741 mmHg 16%

5 March, Friday

Time Temperature Precipitation Wind Pressure Humidity
00:00 +23°C° 0 mm 1 mps 741 mmHg 16%
01:00 +23°C° 0 mm 1 mps 741 mmHg 16%
02:00 +22°C° 0 mm 1 mps 740 mmHg 16%
03:00 +21°C° 0 mm 1 mps 740 mmHg 17%
04:00 +19°C° 0 mm 2 mps 740 mmHg 17%
05:00 +18°C° 0 mm 2 mps 740 mmHg 18%
06:00 +20°C° 0 mm 2 mps 741 mmHg 18%
07:00 +23°C° 0 mm 2 mps 742 mmHg 18%
08:00 +24°C° 0 mm 2 mps 742 mmHg 17%
09:00 +27°C° 0 mm 2 mps 742 mmHg 15%
10:00 +30°C° 0 mm 3 mps 742 mmHg 13%
11:00 +35°C° 0 mm 3 mps 742 mmHg 11%
12:00 +36°C° 0 mm 3 mps 741 mmHg 10%
13:00 +37°C° 0 mm 4 mps 741 mmHg 8%
14:00 +38°C° 0 mm 4 mps 740 mmHg 7%
15:00 +37°C° 0 mm 4 mps 740 mmHg 8%
16:00 +35°C° 0 mm 3 mps 739 mmHg 10%
17:00 +34°C° 0 mm 3 mps 739 mmHg 11%
18:00 +31°C° 0 mm 3 mps 740 mmHg 11%
19:00 +28°C° 0 mm 3 mps 740 mmHg 12%
20:00 +26°C° 0 mm 3 mps 741 mmHg 13%
21:00 +25°C° 0 mm 4 mps 741 mmHg 13%
22:00 +25°C° 0 mm 4 mps 741 mmHg 12%
23:00 +23°C° 0 mm 5 mps 741 mmHg 12%

6 March, Saturday

Time Temperature Precipitation Wind Pressure Humidity
00:00 +22°C° 0 mm 4 mps 741 mmHg 13%
01:00 +21°C° 0 mm 4 mps 741 mmHg 13%
02:00 +20°C° 0 mm 4 mps 741 mmHg 14%
03:00 +19°C° 0 mm 4 mps 740 mmHg 15%
04:00 +19°C° 0 mm 3 mps 740 mmHg 15%
05:00 +18°C° 0 mm 3 mps 740 mmHg 16%
06:00 +20°C° 0 mm 3 mps 741 mmHg 15%
07:00 +22°C° 0 mm 3 mps 742 mmHg 15%
08:00 +25°C° 0 mm 3 mps 743 mmHg 15%
09:00 +28°C° 0 mm 4 mps 743 mmHg 13%
10:00 +33°C° 0 mm 5 mps 743 mmHg 10%
11:00 +36°C° 0 mm 6 mps 743 mmHg 8%
12:00 +38°C° 0 mm 6 mps 742 mmHg 7%
13:00 +39°C° 0 mm 6 mps 742 mmHg 6%
14:00 +40°C° 0 mm 6 mps 741 mmHg 5%
15:00 +39°C° 0 mm 5 mps 740 mmHg 6%
16:00 +36°C° 0 mm 4 mps 740 mmHg 7%
17:00 +35°C° 0 mm 3 mps 740 mmHg 8%
18:00 +32°C° 0 mm 2 mps 740 mmHg 9%
19:00 +29°C° 0 mm 2 mps 740 mmHg 9%
20:00 +27°C° 0 mm 2 mps 741 mmHg 9%
21:00 +26°C° 0 mm 2 mps 741 mmHg 10%
22:00 +25°C° 0 mm 1 mps 741 mmHg 10%
23:00 +24°C° 0 mm 1 mps 741 mmHg 11%

7 March, Sunday

Time Temperature Precipitation Wind Pressure Humidity
00:00 +24°C° 0 mm 1 mps 741 mmHg 11%
01:00 +23°C° 0 mm 1 mps 741 mmHg 12%
02:00 +22°C° 0 mm 1 mps 740 mmHg 12%
03:00 +22°C° 0 mm 1 mps 740 mmHg 13%
04:00 +19°C° 0 mm 0 mps 740 mmHg 13%
05:00 +19°C° 0 mm 0 mps 740 mmHg 13%
06:00 +21°C° 0 mm 0 mps 741 mmHg 13%
07:00 +23°C° 0 mm 0 mps 742 mmHg 13%
08:00 +25°C° 0 mm 0 mps 743 mmHg 12%
09:00 +30°C° 0 mm 1 mps 743 mmHg 11%
10:00 +34°C° 0 mm 2 mps 743 mmHg 9%
11:00 +37°C° 0 mm 3 mps 743 mmHg 7%
12:00 +38°C° 0 mm 3 mps 742 mmHg 7%
13:00 +39°C° 0 mm 3 mps 741 mmHg 7%
14:00 +40°C° 0 mm 3 mps 740 mmHg 7%
15:00 +39°C° 0 mm 3 mps 739 mmHg 9%
16:00 +38°C° 0 mm 2 mps 739 mmHg 10%
17:00 +36°C° 0 mm 1 mps 738 mmHg 12%
18:00 +34°C° 0 mm 1 mps 739 mmHg 13%
19:00 +31°C° 0 mm 2 mps 739 mmHg 14%
20:00 +28°C° 0 mm 2 mps 740 mmHg 15%
21:00 +28°C° 0 mm 2 mps 740 mmHg 15%
22:00 +27°C° 0 mm 3 mps 740 mmHg 15%
23:00 +26°C° 0 mm 3 mps 740 mmHg 15%
Show more